| time (UTC) | temp F | wind direction | speed MPH | gust MPH | rain 1hr in | rain 24hr in | rain mn in | humidity % | barometer mb |
| 20260504204018 | 82 | 282 | 5.0 | 16.0 | 0.00 | 0.00 | 0.00 | 41 | 999.7 |
| 20260504203018 | 81 | 280 | 3.0 | 8.0 | 0.00 | 0.00 | 0.00 | 41 | 999.7 |
| 20260504202018 | 82 | 293 | 5.0 | 9.0 | 0.00 | 0.00 | 0.00 | 39 | 999.9 |
| 20260504201018 | 81 | 291 | 5.0 | 11.0 | 0.00 | 0.00 | 0.00 | 39 | 1000.0 |
| 20260504200035 | 81 | 291 | 6.0 | 11.0 | 0.00 | 0.00 | 0.00 | 39 | 1000.1 |
| 20260504195016 | 81 | 299 | 6.0 | 13.0 | 0.00 | 0.00 | 0.00 | 36 | 1000.2 |
| 20260504194036 | 81 | 295 | 6.0 | 10.0 | 0.00 | 0.00 | 0.00 | 37 | 1000.3 |
| 20260504193017 | 80 | 296 | 7.0 | 13.0 | 0.00 | 0.00 | 0.00 | 38 | 1000.4 |
| 20260504192016 | 81 | 293 | 6.0 | 10.0 | 0.00 | 0.00 | 0.00 | 38 | 1000.4 |
| 20260504191037 | 80 | 288 | 6.0 | 11.0 | 0.00 | 0.00 | 0.00 | 39 | 1000.5 |
| 20260504190017 | 80 | 297 | 8.0 | 14.0 | 0.00 | 0.00 | 0.00 | 39 | 1000.5 |
| 20260504185017 | 79 | 286 | 5.0 | 10.0 | 0.00 | 0.00 | 0.00 | 41 | 1000.6 |
| 20260504184017 | 79 | 289 | 5.0 | 12.0 | 0.00 | 0.00 | 0.00 | 42 | 1000.7 |
| 20260504183017 | 79 | 285 | 5.0 | 10.0 | 0.00 | 0.00 | 0.00 | 43 | 1000.8 |
| 20260504182037 | 80 | 271 | 3.0 | 9.0 | 0.00 | 0.00 | 0.00 | 43 | 1000.9 |
| 20260504181018 | 79 | 291 | 6.0 | 11.0 | 0.00 | 0.00 | 0.00 | 41 | 1001.0 |
| 20260504180017 | 79 | 287 | 3.0 | 8.0 | 0.00 | 0.00 | 0.00 | 44 | 1001.1 |
| 20260504175018 | 78 | 295 | 5.0 | 10.0 | 0.00 | 0.00 | 0.00 | 44 | 1001.1 |
| 20260504174018 | 78 | 263 | 3.0 | 7.0 | 0.00 | 0.00 | 0.00 | 46 | 1001.2 |
| 20260504173019 | 77 | 290 | 3.0 | 8.0 | 0.00 | 0.00 | 0.00 | 47 | 1001.4 |
| 20260504172019 | 76 | 288 | 4.0 | 12.0 | 0.00 | 0.00 | 0.00 | 48 | 1001.6 |
| 20260504171016 | 76 | 256 | 2.0 | 11.0 | 0.00 | 0.00 | 0.00 | 49 | 1001.7 |
| 20260504151016 | 70 | 282 | 3.0 | 8.0 | 0.00 | 0.27 | 0.00 | 55 | 1003.3 |
| 20260504141036 | 66 | 286 | 2.0 | 7.0 | 0.00 | 0.28 | 0.00 | 62 | 1004.0 |
| 20260504081023 | 46 | 94 | 1.0 | 3.0 | 0.00 | 0.28 | 0.00 | 91 | 1005.1 |
| 20260504045027 | 53 | 0.0 | 0.0 | 0.00 | 0.28 | 0.28 | 78 | 1006.5 | |
| 20260504044027 | 53 | 84 | 1.0 | 2.0 | 0.00 | 0.28 | 0.28 | 78 | 1006.5 |
| 20260504043028 | 53 | 120 | 0.0 | 1.0 | 0.00 | 0.28 | 0.28 | 77 | 1006.6 |
| 20260504042028 | 53 | 89 | 0.0 | 1.0 | 0.00 | 0.28 | 0.28 | 76 | 1006.7 |
| 20260504041048 | 54 | 159 | 0.0 | 1.0 | 0.00 | 0.28 | 0.28 | 75 | 1006.8 |
| 20260504040037 | 54 | 87 | 0.0 | 1.0 | 0.00 | 0.28 | 0.28 | 74 | 1006.9 |
| 20260504035017 | 55 | 95 | 0.0 | 2.0 | 0.00 | 0.28 | 0.28 | 73 | 1006.9 |
| 20260504034018 | 55 | 337 | 0.0 | 2.0 | 0.00 | 0.28 | 0.28 | 73 | 1007.0 |
| 20260504033018 | 56 | 111 | 0.0 | 2.0 | 0.00 | 0.28 | 0.28 | 72 | 1007.1 |
| 20260504032018 | 57 | 0.0 | 0.0 | 0.00 | 0.28 | 0.28 | 70 | 1007.2 | |
| 20260504031015 | 58 | 84 | 0.0 | 2.0 | 0.00 | 0.28 | 0.28 | 69 | 1007.3 |
| 20260504030035 | 59 | 72 | 0.0 | 2.0 | 0.00 | 0.28 | 0.28 | 67 | 1007.3 |
| 20260504025016 | 59 | 321 | 0.0 | 2.0 | 0.00 | 0.28 | 0.28 | 65 | 1007.2 |
| 20260504024016 | 60 | 270 | 0.0 | 3.0 | 0.00 | 0.28 | 0.28 | 64 | 1007.2 |
| 20260504023016 | 60 | 283 | 0.0 | 3.0 | 0.00 | 0.28 | 0.28 | 63 | 1007.1 |
| 20260504022016 | 60 | 267 | 1.0 | 3.0 | 0.00 | 0.28 | 0.28 | 62 | 1007.0 |
| 20260504021016 | 60 | 271 | 1.0 | 4.0 | 0.00 | 0.28 | 0.28 | 62 | 1006.9 |
| 20260504020016 | 61 | 270 | 1.0 | 4.0 | 0.00 | 0.28 | 0.28 | 61 | 1006.9 |
| 20260504015017 | 61 | 254 | 1.0 | 3.0 | 0.00 | 0.28 | 0.28 | 61 | 1006.7 |
| 20260504014017 | 61 | 282 | 1.0 | 4.0 | 0.00 | 0.28 | 0.28 | 60 | 1006.7 |
| 20260504013017 | 61 | 307 | 0.0 | 2.0 | 0.00 | 0.28 | 0.28 | 61 | 1006.8 |
| 20260504012017 | 62 | 285 | 1.0 | 4.0 | 0.00 | 0.28 | 0.28 | 59 | 1006.7 |
| 20260504011017 | 62 | 276 | 2.0 | 4.0 | 0.00 | 0.28 | 0.28 | 58 | 1006.6 |
| 20260504010038 | 63 | 280 | 1.0 | 4.0 | 0.00 | 0.28 | 0.28 | 57 | 1006.6 |
| 20260504005018 | 64 | 276 | 1.0 | 4.0 | 0.00 | 0.28 | 0.28 | 57 | 1006.6 |
| 20260504004015 | 64 | 289 | 1.0 | 3.0 | 0.00 | 0.28 | 0.28 | 56 | 1006.7 |
| 20260504003015 | 65 | 293 | 1.0 | 5.0 | 0.00 | 0.28 | 0.28 | 54 | 1006.7 |
| 20260504002016 | 66 | 297 | 2.0 | 4.0 | 0.00 | 0.28 | 0.28 | 54 | 1006.7 |
| 20260504001016 | 66 | 301 | 3.0 | 7.0 | 0.00 | 0.28 | 0.28 | 52 | 1006.7 |
| 20260504000016 | 67 | 285 | 2.0 | 5.0 | 0.00 | 0.28 | 0.28 | 51 | 1006.8 |
| 20260503235016 | 67 | 291 | 3.0 | 7.0 | 0.00 | 0.28 | 0.28 | 51 | 1006.8 |
| 20260503234036 | 68 | 283 | 3.0 | 10.0 | 0.00 | 0.28 | 0.28 | 49 | 1006.7 |
| 20260503233017 | 68 | 285 | 5.0 | 11.0 | 0.00 | 0.28 | 0.28 | 48 | 1006.7 |
| 20260503232017 | 69 | 292 | 4.0 | 7.0 | 0.00 | 0.28 | 0.28 | 48 | 1006.7 |
| 20260503231017 | 69 | 280 | 4.0 | 9.0 | 0.00 | 0.28 | 0.28 | 47 | 1006.8 |
| 20260503230017 | 69 | 288 | 4.0 | 11.0 | 0.00 | 0.28 | 0.28 | 47 | 1006.9 |
| 20260503225037 | 69 | 291 | 4.0 | 10.0 | 0.00 | 0.28 | 0.28 | 48 | 1007.0 |
| 20260503224017 | 67 | 270 | 2.0 | 6.0 | 0.00 | 0.28 | 0.28 | 49 | 1007.1 |
| 20260503223017 | 66 | 275 | 2.0 | 5.0 | 0.00 | 0.28 | 0.28 | 50 | 1007.2 |
| 20260503222018 | 66 | 274 | 2.0 | 5.0 | 0.00 | 0.28 | 0.28 | 50 | 1007.3 |
| 20260503221017 | 66 | 222 | 1.0 | 6.0 | 0.00 | 0.28 | 0.28 | 49 | 1007.4 |
| 20260503220018 | 66 | 263 | 2.0 | 11.0 | 0.00 | 0.28 | 0.28 | 49 | 1007.5 |
| 20260503215059 | 67 | 249 | 2.0 | 6.0 | 0.00 | 0.28 | 0.28 | 48 | 1007.5 |
| 20260503214015 | 67 | 271 | 3.0 | 7.0 | 0.00 | 0.28 | 0.28 | 47 | 1007.7 |
| 20260503213016 | 67 | 266 | 2.0 | 7.0 | 0.00 | 0.28 | 0.28 | 48 | 1007.8 |
| 20260503212016 | 67 | 257 | 3.0 | 6.0 | 0.00 | 0.28 | 0.28 | 47 | 1008.0 |
| 20260503211016 | 66 | 285 | 3.0 | 5.0 | 0.00 | 0.28 | 0.28 | 48 | 1008.2 |
| 20260503210016 | 65 | 282 | 2.0 | 6.0 | 0.00 | 0.28 | 0.28 | 49 | 1008.4 |
| 20260503205037 | 65 | 274 | 2.0 | 6.0 | 0.00 | 0.28 | 0.28 | 48 | 1008.5 |